contact:dominique.lefevre@mio.osupytheas.fr, maurice.libes@osupytheas.fr, didier.mallarino@osupytheas.fr
Project:EMSO http://www.emso-fr.org/EMSO-France
Depth: 2436.0 m
Title:EMSO Ligure Ouest : Data MII capteur AQUADOPP
Date,Latitude,Longitude,X_East,Y_North,Z_Up,Amplitude_X,Amplitude_Y,Amplitude_Z,Batterie,SoundSpeed,Heading,Pitch,Roll,Pressure,TIS,Speed,Direction
, degrees North, degrees East, m.s-1, m.s-1,m.s-1, 1, 1, 1, Volt, m.s-1, degree, degree, degree, dbar, degree_C, m.s-1, degree
2021-03-11T00:04:03,42.805,6.029,0.068,-0.024,0.008,107.0,108.0,104.0,13.4,1505.2,327.0,-0.8,1.8,2470.3,13.28,0.072,109.4
2021-03-11T00:07:03,42.805,6.029,0.083,-0.026,0.046,106.0,108.0,104.0,13.4,1505.2,327.0,-0.8,1.8,2470.312,13.28,0.086,107.4
2021-03-11T00:10:03,42.805,6.029,0.055,-0.025,0.022,106.0,109.0,104.0,13.3,1505.2,327.7,-0.7,1.9,2470.313,13.28,0.06,114.4
2021-03-11T00:13:03,42.805,6.029,0.075,-0.028,0.059,106.0,108.0,103.0,13.4,1505.2,327.3,-0.8,1.8,2470.292,13.28,0.08,110.5
2021-03-11T00:16:03,42.805,6.029,0.065,-0.015,0.037,107.0,108.0,104.0,13.3,1505.2,327.6,-0.8,1.9,2470.304,13.28,0.066,103.0
2021-03-11T00:19:03,42.805,6.029,0.05,-0.017,0.038,107.0,107.0,105.0,13.4,1505.2,327.1,-0.7,1.8,2470.312,13.28,0.052,108.8
2021-03-11T00:22:03,42.805,6.029,0.072,-0.022,0.027,107.0,109.0,104.0,13.4,1505.2,327.3,-0.8,1.8,2470.299,13.28,0.075,107.0
2021-03-11T00:25:03,42.805,6.029,0.068,-0.025,0.008,107.0,111.0,104.0,13.4,1505.2,326.8,-0.8,1.8,2470.299,13.28,0.072,110.2
2021-03-11T00:28:03,42.805,6.029,0.079,-0.012,0.028,106.0,108.0,104.0,13.4,1505.2,327.3,-0.7,1.8,2470.297,13.28,0.079,98.6
2021-03-11T00:31:03,42.805,6.029,0.057,-0.013,0.019,105.0,109.0,105.0,13.3,1505.2,327.1,-0.7,1.8,2470.29,13.28,0.058,102.8
2021-03-11T00:34:03,42.805,6.029,0.063,-0.003,0.041,106.0,109.0,103.0,13.3,1505.2,327.3,-0.8,1.8,2470.274,13.28,0.063,92.7
2021-03-11T00:37:03,42.805,6.029,0.098,-0.034,0.021,107.0,109.0,104.0,13.3,1505.2,327.2,-0.7,1.8,2470.31,13.28,0.103,109.1
2021-03-11T00:40:03,42.805,6.029,0.062,-0.011,0.031,108.0,111.0,104.0,13.4,1505.2,327.6,-0.8,1.8,2470.277,13.28,0.062,100.1
2021-03-11T00:43:03,42.805,6.029,0.062,-0.012,0.008,107.0,108.0,105.0,13.4,1505.2,326.9,-0.8,1.8,2470.258,13.28,0.063,101.0
2021-03-11T00:46:03,42.805,6.029,0.078,-0.035,0.027,106.0,107.0,104.0,13.4,1505.2,327.6,-0.7,1.8,2470.313,13.28,0.085,114.2
2021-03-11T00:49:03,42.805,6.029,0.055,0.0,0.012,107.0,108.0,103.0,13.4,1505.2,327.5,-0.7,1.8,2470.275,13.28,0.055,90.0
2021-03-11T00:52:03,42.805,6.029,0.067,-0.018,0.011,106.0,108.0,104.0,13.4,1505.2,327.2,-0.7,1.8,2470.254,13.28,0.069,105.0
2021-03-11T00:55:03,42.805,6.029,0.074,-0.022,0.003,106.0,109.0,104.0,13.4,1505.2,327.7,-0.7,1.9,2470.283,13.28,0.077,106.6
2021-03-11T00:58:03,42.805,6.029,0.063,-0.026,0.035,106.0,107.0,104.0,13.4,1505.2,327.4,-0.8,1.8,2470.272,13.28,0.068,112.4
2021-03-11T01:04:03,42.805,6.029,0.063,-0.006,-0.013,106.0,108.0,104.0,13.3,1505.2,326.7,-0.8,1.8,2470.323,13.28,0.063,95.4
2021-03-11T01:07:03,42.805,6.029,0.061,-0.011,0.016,106.0,107.0,104.0,13.3,1505.2,327.7,-0.8,1.8,2470.328,13.28,0.061,100.2
2021-03-11T01:10:03,42.805,6.029,0.074,-0.004,0.011,106.0,108.0,103.0,13.4,1505.2,326.8,-0.8,1.8,2470.32,13.28,0.074,93.1
2021-03-11T01:13:03,42.805,6.029,0.069,-0.019,0.038,106.0,107.0,105.0,13.3,1505.2,327.0,-0.8,1.8,2470.324,13.28,0.071,105.4
2021-03-11T01:16:03,42.805,6.029,0.041,-0.016,0.044,107.0,109.0,104.0,13.3,1505.2,327.5,-0.8,1.8,2470.266,13.28,0.044,111.3
2021-03-11T01:19:03,42.805,6.029,0.078,-0.023,0.014,107.0,107.0,104.0,13.3,1505.2,327.5,-0.8,1.8,2470.331,13.28,0.081,106.4
2021-03-11T01:22:03,42.805,6.029,0.065,-0.024,0.032,106.0,109.0,104.0,13.4,1505.2,327.5,-0.7,1.8,2470.32,13.28,0.069,110.3
2021-03-11T01:25:03,42.805,6.029,0.067,-0.014,0.023,106.0,108.0,103.0,13.4,1505.2,327.1,-0.8,1.8,2470.305,13.28,0.068,101.8
2021-03-11T01:28:03,42.805,6.029,0.091,-0.018,-0.004,108.0,108.0,103.0,13.3,1505.2,327.2,-0.8,1.8,2470.306,13.28,0.092,101.2
2021-03-11T01:31:03,42.805,6.029,0.085,0.0,0.026,106.0,107.0,104.0,13.3,1505.2,327.7,-0.7,1.8,2470.315,13.28,0.084,90.0
2021-03-11T01:34:03,42.805,6.029,0.058,-0.004,0.025,106.0,109.0,104.0,13.4,1505.2,326.8,-0.8,1.8,2470.313,13.28,0.058,93.9
2021-03-11T01:37:03,42.805,6.029,0.062,-0.015,0.0,106.0,109.0,103.0,13.4,1505.2,327.3,-0.7,1.8,2470.322,13.28,0.063,103.6
2021-03-11T01:40:03,42.805,6.029,0.07,-0.01,0.038,108.0,108.0,105.0,13.3,1505.2,327.2,-0.8,1.8,2470.312,13.28,0.07,98.1
2021-03-11T01:43:03,42.805,6.029,0.06,-0.004,0.016,106.0,109.0,104.0,13.3,1505.2,326.8,-0.8,1.8,2470.341,13.28,0.06,93.8
2021-03-11T01:46:03,42.805,6.029,0.052,-0.003,-0.006,107.0,108.0,104.0,13.4,1505.2,327.3,-0.8,1.8,2470.31,13.28,0.052,93.3
2021-03-11T01:49:03,42.805,6.029,0.077,0.004,0.035,107.0,107.0,103.0,13.4,1505.2,327.4,-0.8,1.8,2470.321,13.28,0.077,87.0
2021-03-11T01:52:03,42.805,6.029,0.068,-0.008,0.046,107.0,110.0,104.0,13.4,1505.2,327.4,-0.8,1.9,2470.29,13.28,0.068,96.7
2021-03-11T01:55:03,42.805,6.029,0.078,-0.03,0.028,106.0,110.0,104.0,13.3,1505.2,327.3,-0.8,1.8,2470.293,13.28,0.083,111.0
2021-03-11T01:58:03,42.805,6.029,0.068,-0.016,0.03,106.0,110.0,104.0,13.3,1505.2,327.6,-0.8,1.8,2470.355,13.28,0.069,103.2
2021-03-11T02:04:03,42.805,6.029,0.084,-0.015,0.029,106.0,109.0,104.0,13.4,1505.2,327.1,-0.8,1.8,2470.375,13.28,0.085,100.1
2021-03-11T02:07:03,42.805,6.029,0.055,-0.016,0.04,107.0,109.0,104.0,13.4,1505.2,327.4,-0.8,1.8,2470.353,13.28,0.057,106.2
2021-03-11T02:10:03,42.805,6.029,0.063,-0.003,0.007,106.0,108.0,104.0,13.4,1505.2,327.2,-0.8,1.8,2470.334,13.28,0.063,92.7
2021-03-11T02:13:03,42.805,6.029,0.066,-0.029,0.024,107.0,109.0,104.0,13.3,1505.2,326.8,-0.7,1.8,2470.353,13.28,0.072,113.7
2021-03-11T02:16:03,42.805,6.029,0.049,0.012,0.005,105.0,109.0,104.0,13.3,1505.2,327.2,-0.8,1.8,2470.365,13.28,0.05,76.2
2021-03-11T02:19:03,42.805,6.029,0.07,-0.03,0.019,107.0,109.0,103.0,13.4,1505.2,327.2,-0.7,1.8,2470.379,13.28,0.076,113.2
2021-03-11T02:22:03,42.805,6.029,0.077,-0.021,0.018,106.0,109.0,104.0,13.4,1505.2,327.2,-0.8,1.8,2470.368,13.28,0.079,105.3
2021-03-11T02:25:03,42.805,6.029,0.065,-0.014,0.051,107.0,110.0,103.0,13.4,1505.2,327.3,-0.8,1.8,2470.386,13.28,0.066,102.2
2021-03-11T02:28:03,42.805,6.029,0.07,-0.02,0.012,107.0,107.0,102.0,13.4,1505.2,327.3,-0.7,1.8,2470.344,13.28,0.072,105.9
2021-03-11T02:31:03,42.805,6.029,0.057,-0.025,0.011,107.0,109.0,104.0,13.3,1505.2,327.0,-0.8,1.8,2470.363,13.28,0.062,113.7
2021-03-11T02:34:03,42.805,6.029,0.063,-0.017,0.009,107.0,109.0,103.0,13.4,1505.2,327.3,-0.7,1.8,2470.328,13.28,0.065,105.1
2021-03-11T02:37:03,42.805,6.029,0.079,-0.001,0.033,105.0,109.0,103.0,13.3,1505.2,326.8,-0.8,1.8,2470.387,13.28,0.079,90.7
2021-03-11T02:40:03,42.805,6.029,0.083,0.001,0.034,106.0,109.0,104.0,13.4,1505.2,327.7,-0.7,1.8,2470.361,13.28,0.083,89.3
2021-03-11T02:43:03,42.805,6.029,0.062,-0.007,0.017,106.0,109.0,104.0,13.4,1505.2,326.7,-0.8,1.8,2470.372,13.28,0.062,96.4
2021-03-11T02:46:03,42.805,6.029,0.051,-0.028,0.035,106.0,107.0,103.0,13.4,1505.2,327.6,-0.8,1.8,2470.371,13.28,0.058,118.8
2021-03-11T02:49:03,42.805,6.029,0.075,-0.013,0.028,106.0,109.0,105.0,13.4,1505.2,327.2,-0.7,1.8,2470.378,13.28,0.076,99.8
2021-03-11T02:52:03,42.805,6.029,0.056,-0.009,0.011,106.0,109.0,104.0,13.4,1505.2,327.3,-0.8,1.9,2470.379,13.28,0.056,99.1
2021-03-11T02:55:03,42.805,6.029,0.06,-0.015,0.045,105.0,107.0,105.0,13.4,1505.2,327.1,-0.7,1.9,2470.38,13.28,0.061,104.0
2021-03-11T02:58:03,42.805,6.029,0.055,-0.018,0.011,106.0,109.0,104.0,13.4,1505.2,327.5,-0.7,1.8,2470.411,13.28,0.057,108.1
2021-03-11T03:04:03,42.805,6.029,0.068,-0.024,0.02,106.0,107.0,105.0,13.4,1505.2,327.6,-0.8,1.8,2470.415,13.28,0.072,109.4
2021-03-11T03:07:03,42.805,6.029,0.053,-0.027,0.047,108.0,108.0,103.0,13.4,1505.2,327.7,-0.8,1.9,2470.412,13.28,0.059,117.0
2021-03-11T03:10:03,42.805,6.029,0.07,-0.008,0.036,106.0,109.0,103.0,13.4,1505.2,327.3,-0.8,1.8,2470.458,13.28,0.07,96.5
2021-03-11T03:13:03,42.805,6.029,0.071,-0.002,0.042,107.0,109.0,104.0,13.3,1505.2,327.2,-0.8,1.8,2470.416,13.28,0.071,91.6
2021-03-11T03:16:03,42.805,6.029,0.041,-0.016,0.005,106.0,108.0,103.0,13.4,1505.2,327.3,-0.7,1.8,2470.422,13.28,0.044,111.3
2021-03-11T03:19:03,42.805,6.029,0.052,-0.01,0.0,106.0,110.0,104.0,13.4,1505.2,327.0,-0.8,1.8,2470.447,13.28,0.052,100.9
2021-03-11T03:22:03,42.805,6.029,0.071,-0.003,0.029,107.0,110.0,103.0,13.3,1505.2,327.7,-0.7,1.8,2470.44,13.28,0.071,92.4
2021-03-11T03:25:03,42.805,6.029,0.058,0.004,0.022,106.0,107.0,104.0,13.3,1505.2,327.2,-0.7,1.8,2470.471,13.28,0.058,86.1
2021-03-11T03:28:03,42.805,6.029,0.066,-0.009,0.014,107.0,110.0,103.0,13.4,1505.2,326.8,-0.7,1.8,2470.457,13.28,0.066,97.8
2021-03-11T03:31:03,42.805,6.029,0.071,-0.026,0.011,106.0,108.0,104.0,13.4,1505.2,327.1,-0.8,1.9,2470.413,13.28,0.075,110.1
2021-03-11T03:34:03,42.805,6.029,0.067,-0.014,0.026,106.0,108.0,105.0,13.4,1505.2,327.4,-0.8,1.8,2470.445,13.28,0.068,101.8
2021-03-11T03:37:03,42.805,6.029,0.066,-0.008,0.019,105.0,108.0,104.0,13.4,1505.2,327.1,-0.8,1.8,2470.463,13.28,0.066,96.9
2021-03-11T03:40:03,42.805,6.029,0.074,-0.001,0.006,107.0,109.0,104.0,13.4,1505.2,327.2,-0.8,1.8,2470.456,13.28,0.074,90.8
2021-03-11T03:43:03,42.805,6.029,0.04,-0.001,-0.005,106.0,109.0,105.0,13.4,1505.2,327.1,-0.8,1.8,2470.458,13.28,0.04,91.4
2021-03-11T03:46:03,42.805,6.029,0.067,-0.018,0.021,106.0,110.0,104.0,13.4,1505.2,327.6,-0.8,1.8,2470.421,13.28,0.069,105.0
2021-03-11T03:49:03,42.805,6.029,0.072,-0.028,0.006,105.0,109.0,104.0,13.3,1505.2,327.3,-0.8,1.8,2470.433,13.28,0.077,111.2
2021-03-11T03:52:03,42.805,6.029,0.071,-0.011,0.012,106.0,110.0,104.0,13.4,1505.2,327.3,-0.8,1.8,2470.456,13.28,0.071,98.8
2021-03-11T03:55:03,42.805,6.029,0.077,-0.004,0.045,107.0,109.0,103.0,13.3,1505.2,327.0,-0.8,1.8,2470.457,13.28,0.077,93.0
2021-03-11T03:58:03,42.805,6.029,0.049,-0.032,0.019,106.0,108.0,103.0,13.4,1505.2,327.4,-0.8,1.9,2470.449,13.28,0.058,123.2
2021-03-11T04:04:03,42.805,6.029,0.074,-0.014,0.031,106.0,109.0,104.0,13.4,1505.2,327.2,-0.7,1.8,2470.474,13.28,0.075,100.7
2021-03-11T04:07:03,42.805,6.029,0.08,0.002,0.068,106.0,110.0,104.0,13.3,1505.2,327.2,-0.7,1.8,2470.47,13.28,0.08,88.6
2021-03-11T04:10:03,42.805,6.029,0.066,0.016,0.053,107.0,110.0,104.0,13.3,1505.2,327.6,-0.7,1.8,2470.472,13.28,0.067,76.4
2021-03-11T04:13:03,42.805,6.029,0.074,0.0,0.059,106.0,110.0,103.0,13.3,1505.2,326.7,-0.7,1.8,2470.491,13.28,0.073,90.0
2021-03-11T04:16:03,42.805,6.029,0.093,0.012,0.064,106.0,110.0,103.0,13.3,1505.2,327.0,-0.8,1.8,2470.487,13.28,0.093,82.7
2021-03-11T04:19:03,42.805,6.029,0.051,-0.003,0.054,107.0,108.0,104.0,13.4,1505.2,327.0,-0.8,1.9,2470.475,13.28,0.051,93.4
2021-03-11T04:22:03,42.805,6.029,0.054,-0.002,0.016,106.0,109.0,103.0,13.3,1505.2,327.1,-0.7,1.8,2470.486,13.28,0.054,92.1
2021-03-11T04:25:03,42.805,6.029,0.078,-0.021,0.067,107.0,110.0,104.0,13.4,1505.2,327.3,-0.7,1.8,2470.492,13.28,0.08,105.1
2021-03-11T04:28:03,42.805,6.029,0.064,-0.002,0.075,107.0,109.0,104.0,13.4,1505.2,327.4,-0.8,1.8,2470.431,13.28,0.064,91.8
2021-03-11T04:31:03,42.805,6.029,0.048,0.002,0.035,106.0,109.0,104.0,13.4,1505.2,327.0,-0.7,1.8,2470.462,13.28,0.048,87.6
2021-03-11T04:34:03,42.805,6.029,0.042,-0.014,0.006,106.0,109.0,104.0,13.3,1505.2,327.6,-0.8,1.8,2470.486,13.28,0.044,108.4
2021-03-11T04:37:03,42.805,6.029,0.057,-0.023,0.023,106.0,108.0,104.0,13.4,1505.2,327.5,-0.8,1.8,2470.489,13.28,0.061,112.0
2021-03-11T04:40:03,42.805,6.029,0.064,-0.028,0.021,107.0,110.0,103.0,13.4,1505.2,327.2,-0.8,1.9,2470.484,13.28,0.069,113.6
2021-03-11T04:43:03,42.805,6.029,0.057,0.0,0.037,106.0,109.0,104.0,13.4,1505.2,326.6,-0.7,1.8,2470.516,13.28,0.057,90.0
2021-03-11T04:46:03,42.805,6.029,0.042,0.005,0.012,106.0,109.0,104.0,13.4,1505.2,326.8,-0.7,1.9,2470.534,13.28,0.042,83.2
2021-03-11T04:49:03,42.805,6.029,0.055,-0.016,0.029,107.0,109.0,104.0,13.4,1505.2,327.7,-0.8,1.8,2470.508,13.28,0.057,106.2
2021-03-11T04:52:03,42.805,6.029,0.07,-0.02,0.038,106.0,110.0,104.0,13.4,1505.2,327.3,-0.8,1.8,2470.532,13.28,0.072,105.9
2021-03-11T04:55:03,42.805,6.029,0.049,-0.004,0.02,106.0,109.0,104.0,13.3,1505.2,327.1,-0.7,1.8,2470.501,13.28,0.049,94.7
2021-03-11T04:58:03,42.805,6.029,0.071,-0.02,0.028,107.0,111.0,104.0,13.4,1505.2,327.6,-0.7,1.8,2470.506,13.28,0.073,105.7
2021-03-11T05:04:03,42.805,6.029,0.066,-0.019,0.046,107.0,110.0,104.0,13.4,1505.2,327.2,-0.8,1.8,2470.552,13.28,0.068,106.1
2021-03-11T05:07:03,42.805,6.029,0.056,0.001,0.023,106.0,111.0,104.0,13.3,1505.2,327.4,-0.8,1.8,2470.494,13.28,0.056,89.0
2021-03-11T05:10:03,42.805,6.029,0.061,-0.005,0.033,106.0,109.0,104.0,13.3,1505.2,327.7,-0.7,1.8,2470.52,13.28,0.061,94.7
2021-03-11T05:13:03,42.805,6.029,0.05,-0.029,0.029,106.0,111.0,104.0,13.4,1505.2,327.7,-0.7,1.9,2470.507,13.28,0.057,120.1
2021-03-11T05:16:03,42.805,6.029,0.053,-0.027,-0.007,107.0,109.0,104.0,13.4,1505.2,327.6,-0.8,1.8,2470.571,13.28,0.059,117.0
2021-03-11T05:19:03,42.805,6.029,0.06,-0.012,0.019,106.0,109.0,104.0,13.4,1505.2,327.1,-0.8,1.8,2470.511,13.28,0.061,101.3
2021-03-11T05:22:03,42.805,6.029,0.061,-0.013,0.015,107.0,109.0,104.0,13.4,1505.2,327.3,-0.8,1.8,2470.493,13.28,0.062,102.0
2021-03-11T05:25:03,42.805,6.029,0.072,-0.009,0.05,107.0,109.0,103.0,13.4,1505.2,327.5,-0.7,1.8,2470.511,13.28,0.072,97.1
2021-03-11T05:28:03,42.805,6.029,0.065,-0.009,-0.007,106.0,110.0,105.0,13.4,1505.2,326.8,-0.8,1.8,2470.538,13.28,0.065,97.9
2021-03-11T05:31:03,42.805,6.029,0.08,-0.007,0.039,106.0,108.0,104.0,13.4,1505.2,327.8,-0.7,1.8,2470.559,13.28,0.08,95.0
2021-03-11T05:34:03,42.805,6.029,0.044,-0.02,0.028,107.0,110.0,104.0,13.4,1505.2,327.4,-0.8,1.8,2470.579,13.28,0.048,114.4
2021-03-11T05:37:03,42.805,6.029,0.054,-0.006,0.019,106.0,110.0,104.0,13.3,1505.2,326.9,-0.8,1.8,2470.547,13.28,0.054,96.3
2021-03-11T05:40:03,42.805,6.029,0.053,-0.003,0.046,107.0,108.0,103.0,13.4,1505.2,327.6,-0.7,1.8,2470.549,13.28,0.053,93.2
2021-03-11T05:43:03,42.805,6.029,0.032,0.007,0.01,107.0,111.0,104.0,13.3,1505.2,327.3,-0.8,1.8,2470.547,13.28,0.032,77.7
2021-03-11T05:46:03,42.805,6.029,0.082,-0.009,0.043,108.0,109.0,104.0,13.4,1505.2,326.7,-0.8,1.8,2470.53,13.28,0.082,96.3
2021-03-11T05:49:03,42.805,6.029,0.072,-0.014,0.033,107.0,109.0,104.0,13.3,1505.2,327.3,-0.8,1.8,2470.533,13.28,0.073,101.0
2021-03-11T05:52:03,42.805,6.029,0.064,-0.025,0.005,106.0,109.0,104.0,13.4,1505.2,327.8,-0.8,1.9,2470.538,13.28,0.068,111.3
2021-03-11T05:55:03,42.805,6.029,0.051,-0.018,0.01,107.0,108.0,104.0,13.3,1505.2,327.3,-0.7,1.8,2470.544,13.28,0.054,109.4
2021-03-11T05:58:03,42.805,6.029,0.062,-0.006,0.011,107.0,109.0,103.0,13.4,1505.2,327.7,-0.7,1.8,2470.52,13.28,0.062,95.5
2021-03-11T06:04:03,42.805,6.029,0.061,0.0,0.036,106.0,108.0,104.0,13.4,1505.2,327.5,-0.8,1.8,2470.568,13.28,0.06,90.0
2021-03-11T06:07:03,42.805,6.029,0.046,-0.022,0.003,108.0,109.0,103.0,13.4,1505.2,327.5,-0.8,1.8,2470.547,13.28,0.05,115.6
2021-03-11T06:10:03,42.805,6.029,0.066,-0.003,0.034,107.0,109.0,104.0,13.4,1505.2,327.0,-0.8,1.8,2470.55,13.28,0.066,92.6
2021-03-11T06:13:03,42.805,6.029,0.064,0.004,0.015,107.0,109.0,104.0,13.4,1505.2,327.5,-0.8,1.9,2470.553,13.28,0.064,86.4
2021-03-11T06:16:03,42.805,6.029,0.045,-0.005,0.008,107.0,110.0,105.0,13.4,1505.2,327.4,-0.8,1.8,2470.525,13.28,0.045,96.3
2021-03-11T06:19:03,42.805,6.029,0.059,-0.022,0.007,107.0,110.0,105.0,13.4,1505.2,327.3,-0.8,1.8,2470.562,13.28,0.062,110.4
2021-03-11T06:22:03,42.805,6.029,0.052,-0.019,0.016,106.0,110.0,104.0,13.3,1505.2,327.6,-0.7,1.9,2470.543,13.28,0.055,110.1
2021-03-11T06:25:03,42.805,6.029,0.056,0.0,0.026,107.0,110.0,104.0,13.4,1505.2,326.8,-0.8,1.8,2470.546,13.28,0.056,90.0
2021-03-11T06:28:03,42.805,6.029,0.067,-0.017,0.034,107.0,109.0,104.0,13.4,1505.2,327.3,-0.8,1.8,2470.517,13.28,0.069,104.2
2021-03-11T06:31:03,42.805,6.029,0.08,-0.003,0.047,105.0,110.0,104.0,13.4,1505.2,327.5,-0.7,1.9,2470.504,13.28,0.08,92.1
2021-03-11T06:34:03,42.805,6.029,0.053,-0.015,0.015,107.0,109.0,103.0,13.4,1505.2,327.4,-0.8,1.9,2470.54,13.28,0.055,105.8
2021-03-11T06:37:03,42.805,6.029,0.055,-0.02,0.009,106.0,110.0,104.0,13.4,1505.2,327.3,-0.8,1.9,2470.572,13.28,0.058,110.0
2021-03-11T06:40:03,42.805,6.029,0.084,-0.021,0.05,106.0,110.0,104.0,13.3,1505.2,327.0,-0.7,1.8,2470.535,13.28,0.086,104.0
2021-03-11T06:43:03,42.805,6.029,0.052,-0.013,0.028,107.0,109.0,103.0,13.3,1505.2,327.3,-0.8,1.8,2470.477,13.28,0.053,104.0
2021-03-11T06:46:03,42.805,6.029,0.047,-0.01,0.002,107.0,111.0,105.0,13.3,1505.2,327.3,-0.7,1.8,2470.501,13.28,0.048,102.0
2021-03-11T06:49:03,42.805,6.029,0.063,-0.025,0.015,106.0,110.0,105.0,13.4,1505.2,326.8,-0.7,1.8,2470.487,13.28,0.067,111.6
2021-03-11T06:52:03,42.805,6.029,0.07,-0.002,0.048,107.0,110.0,104.0,13.4,1505.2,326.8,-0.8,1.8,2470.502,13.28,0.07,91.6
2021-03-11T06:55:03,42.805,6.029,0.071,-0.007,0.018,107.0,110.0,104.0,13.3,1505.2,327.1,-0.8,1.8,2470.499,13.28,0.071,95.6
2021-03-11T06:58:03,42.805,6.029,0.058,-0.009,-0.006,108.0,110.0,104.0,13.4,1505.2,327.8,-0.7,1.8,2470.474,13.28,0.058,98.8
2021-03-11T07:04:03,42.805,6.029,0.061,-0.033,-0.005,108.0,111.0,104.0,13.3,1505.2,327.2,-0.8,1.8,2470.564,13.28,0.069,118.4
2021-03-11T07:07:03,42.805,6.029,0.058,-0.016,0.023,107.0,111.0,105.0,13.3,1505.2,326.8,-0.8,1.8,2470.554,13.28,0.06,105.4
2021-03-11T07:10:03,42.805,6.029,0.058,-0.004,0.027,107.0,109.0,104.0,13.4,1505.2,327.4,-0.8,1.8,2470.548,13.28,0.058,93.9
2021-03-11T07:13:03,42.805,6.029,0.03,0.005,0.011,108.0,110.0,104.0,13.4,1505.2,327.0,-0.8,1.9,2470.543,13.28,0.03,80.5
2021-03-11T07:16:03,42.805,6.029,0.041,0.013,-0.004,106.0,109.0,104.0,13.4,1505.2,327.5,-0.7,1.8,2470.515,13.28,0.043,72.4
2021-03-11T07:19:03,42.805,6.029,0.06,0.003,0.017,108.0,111.0,103.0,13.4,1505.2,326.8,-0.8,1.8,2470.557,13.28,0.06,87.1
2021-03-11T07:22:03,42.805,6.029,0.071,-0.007,0.008,108.0,111.0,104.0,13.4,1505.2,327.1,-0.8,1.8,2470.553,13.28,0.071,95.6
2021-03-11T07:25:03,42.805,6.029,0.063,-0.025,0.004,107.0,111.0,104.0,13.4,1505.2,327.3,-0.7,1.8,2470.511,13.28,0.067,111.6
2021-03-11T07:28:03,42.805,6.029,0.071,-0.02,0.026,108.0,111.0,104.0,13.4,1505.2,327.1,-0.8,1.8,2470.503,13.28,0.073,105.7
2021-03-11T07:31:03,42.805,6.029,0.06,0.003,0.043,107.0,111.0,104.0,13.4,1505.2,326.8,-0.8,1.8,2470.482,13.28,0.06,87.1
2021-03-11T07:34:03,42.805,6.029,0.058,-0.002,0.044,107.0,112.0,104.0,13.4,1505.2,327.2,-0.7,1.8,2470.494,13.28,0.058,92.0
2021-03-11T07:37:03,42.805,6.029,0.05,-0.004,0.017,108.0,110.0,104.0,13.4,1505.2,326.6,-0.7,1.8,2470.474,13.28,0.05,94.6
2021-03-11T07:40:03,42.805,6.029,0.072,-0.007,0.016,106.0,112.0,104.0,13.3,1505.2,327.1,-0.8,1.8,2470.481,13.28,0.072,95.5
2021-03-11T07:43:03,42.805,6.029,0.055,0.002,0.044,105.0,109.0,103.0,13.3,1505.2,327.4,-0.8,1.8,2470.477,13.28,0.055,87.9
2021-03-11T07:46:03,42.805,6.029,0.089,-0.01,0.006,107.0,108.0,105.0,13.4,1505.2,327.6,-0.8,1.8,2470.463,13.28,0.089,96.4
2021-03-11T07:49:03,42.805,6.029,0.062,-0.01,0.018,107.0,110.0,105.0,13.4,1505.2,327.1,-0.7,1.8,2470.504,13.28,0.062,99.2
2021-03-11T07:52:03,42.805,6.029,0.047,-0.012,0.0,106.0,112.0,104.0,13.4,1505.2,327.2,-0.8,1.8,2470.501,13.28,0.048,104.3
2021-03-11T07:55:03,42.805,6.029,0.08,0.011,0.036,108.0,109.0,103.0,13.4,1505.2,327.2,-0.7,1.8,2470.451,13.28,0.08,82.2
2021-03-11T07:58:03,42.805,6.029,0.036,0.002,0.012,106.0,110.0,105.0,13.4,1505.2,327.1,-0.8,1.9,2470.452,13.28,0.036,86.8
2021-03-11T08:04:03,42.805,6.029,0.05,-0.028,0.016,107.0,110.0,104.0,13.4,1505.2,327.1,-0.8,1.8,2470.461,13.28,0.057,119.3
2021-03-11T08:07:03,42.805,6.029,0.059,0.004,0.006,107.0,111.0,104.0,13.3,1505.2,327.2,-0.7,1.9,2470.501,13.28,0.059,86.1
2021-03-11T08:10:03,42.805,6.029,0.056,-0.009,0.024,107.0,111.0,105.0,13.4,1505.2,327.3,-0.8,1.8,2470.44,13.28,0.056,99.1
2021-03-11T08:13:03,42.805,6.029,0.043,0.003,0.046,108.0,109.0,104.0,13.4,1505.2,327.1,-0.7,1.8,2470.492,13.28,0.043,86.0
2021-03-11T08:16:03,42.805,6.029,0.038,-0.008,0.028,107.0,112.0,105.0,13.4,1505.2,327.5,-0.7,1.8,2470.423,13.28,0.038,101.9
2021-03-11T08:19:03,42.805,6.029,0.083,-0.007,0.025,105.0,110.0,105.0,13.4,1505.2,327.5,-0.7,1.8,2470.437,13.28,0.083,94.8
2021-03-11T08:22:03,42.805,6.029,0.056,0.0,0.024,107.0,111.0,103.0,13.3,1505.2,326.7,-0.8,1.8,2470.483,13.28,0.056,90.0
2021-03-11T08:25:03,42.805,6.029,0.057,-0.001,0.026,106.0,110.0,105.0,13.4,1505.2,327.4,-0.7,1.8,2470.462,13.28,0.057,91.0
2021-03-11T08:28:03,42.805,6.029,0.058,0.004,0.009,107.0,111.0,104.0,13.4,1505.2,327.3,-0.7,1.8,2470.473,13.28,0.058,86.1
2021-03-11T08:31:03,42.805,6.029,0.099,-0.02,0.043,107.0,109.0,105.0,13.4,1505.2,326.9,-0.8,1.8,2470.47,13.28,0.101,101.4
2021-03-11T08:34:03,42.805,6.029,0.085,-0.025,0.066,107.0,110.0,104.0,13.4,1505.2,327.2,-0.7,1.8,2470.431,13.28,0.088,106.4
2021-03-11T08:37:03,42.805,6.029,0.068,-0.019,0.018,107.0,110.0,104.0,13.4,1505.2,327.5,-0.8,1.8,2470.455,13.28,0.07,105.6
2021-03-11T08:40:03,42.805,6.029,0.063,-0.002,0.014,107.0,111.0,105.0,13.4,1505.2,327.1,-0.7,1.8,2470.411,13.28,0.063,91.8
2021-03-11T08:43:03,42.805,6.029,0.07,0.009,0.04,106.0,109.0,105.0,13.3,1505.2,327.2,-0.7,1.8,2470.393,13.28,0.07,82.7
2021-03-11T08:46:03,42.805,6.029,0.072,0.0,0.015,107.0,109.0,103.0,13.4,1505.2,327.2,-0.7,1.8,2470.435,13.28,0.071,90.0
2021-03-11T08:49:03,42.805,6.029,0.088,-0.001,0.054,108.0,108.0,104.0,13.3,1505.2,327.5,-0.7,1.8,2470.438,13.28,0.088,90.6
2021-03-11T08:52:03,42.805,6.029,0.06,0.005,0.034,107.0,110.0,104.0,13.4,1505.2,327.1,-0.7,1.8,2470.404,13.28,0.06,85.2
2021-03-11T08:55:03,42.805,6.029,0.046,-0.014,0.028,107.0,109.0,105.0,13.4,1505.2,327.1,-0.8,1.8,2470.421,13.28,0.048,106.9
2021-03-11T08:58:03,42.805,6.029,0.049,-0.009,0.026,107.0,111.0,105.0,13.3,1505.2,327.0,-0.8,1.9,2470.424,13.28,0.049,100.4
2021-03-11T09:04:03,42.805,6.029,0.067,0.012,0.03,108.0,113.0,103.0,13.3,1505.2,327.2,-0.8,1.8,2470.46,13.28,0.068,79.8
2021-03-11T09:07:03,42.805,6.029,0.072,0.003,0.004,107.0,110.0,104.0,13.4,1505.2,326.7,-0.8,1.8,2470.427,13.28,0.072,87.6
2021-03-11T09:10:03,42.805,6.029,0.063,-0.01,0.003,107.0,109.0,105.0,13.3,1505.2,327.0,-0.8,1.8,2470.399,13.28,0.063,99.0
2021-03-11T09:13:03,42.805,6.029,0.057,-0.001,0.008,107.0,110.0,104.0,13.4,1505.2,326.8,-0.7,1.8,2470.427,13.28,0.057,91.0
2021-03-11T09:16:03,42.805,6.029,0.059,-0.013,0.027,106.0,111.0,105.0,13.3,1505.2,327.1,-0.7,1.8,2470.43,13.28,0.06,102.4
2021-03-11T09:19:03,42.805,6.029,0.077,-0.004,0.052,107.0,110.0,104.0,13.3,1505.2,327.4,-0.7,1.8,2470.403,13.28,0.077,93.0
2021-03-11T09:22:03,42.805,6.029,0.068,-0.012,0.037,107.0,111.0,104.0,13.4,1505.2,327.2,-0.7,1.8,2470.389,13.28,0.069,100.0
2021-03-11T09:25:03,42.805,6.029,0.057,-0.01,0.075,107.0,110.0,105.0,13.3,1505.2,327.4,-0.7,1.8,2470.365,13.28,0.057,99.9
2021-03-11T09:28:03,42.805,6.029,0.058,-0.002,0.026,107.0,110.0,105.0,13.4,1505.2,327.2,-0.8,1.8,2470.348,13.28,0.058,92.0
2021-03-11T09:31:03,42.805,6.029,0.065,0.005,0.047,107.0,109.0,103.0,13.4,1505.2,327.5,-0.7,1.8,2470.376,13.28,0.065,85.6
2021-03-11T09:34:03,42.805,6.029,0.071,-0.018,0.043,107.0,111.0,103.0,13.4,1505.2,327.1,-0.8,1.8,2470.381,13.28,0.073,104.2
2021-03-11T09:37:03,42.805,6.029,0.052,-0.011,0.027,108.0,111.0,104.0,13.4,1505.2,327.5,-0.8,1.8,2470.372,13.28,0.053,101.9
2021-03-11T09:40:03,42.805,6.029,0.054,-0.013,0.007,107.0,112.0,103.0,13.4,1505.2,327.4,-0.8,1.9,2470.414,13.28,0.055,103.5
2021-03-11T09:43:03,42.805,6.029,0.074,0.008,0.033,107.0,109.0,104.0,13.4,1505.2,327.5,-0.7,1.8,2470.36,13.28,0.074,83.8
2021-03-11T09:46:03,42.805,6.029,0.054,-0.033,0.034,107.0,109.0,103.0,13.4,1505.2,327.0,-0.7,1.8,2470.367,13.28,0.063,121.4
2021-03-11T09:49:03,42.805,6.029,0.063,0.001,0.036,107.0,110.0,103.0,13.4,1505.2,327.1,-0.7,1.8,2470.404,13.28,0.063,89.1
2021-03-11T09:52:03,42.805,6.029,0.045,0.0,0.018,108.0,110.0,103.0,13.3,1505.2,327.5,-0.8,1.8,2470.346,13.28,0.045,90.0
2021-03-11T09:55:03,42.805,6.029,0.081,0.0,0.036,107.0,109.0,104.0,13.3,1505.2,326.8,-0.8,1.8,2470.353,13.28,0.08,90.0
2021-03-11T09:58:03,42.805,6.029,0.064,-0.007,0.019,108.0,109.0,103.0,13.4,1505.2,327.5,-0.8,1.9,2470.379,13.28,0.064,96.2
2021-03-11T10:04:03,42.805,6.029,0.068,0.0,0.022,107.0,108.0,104.0,13.4,1505.2,327.5,-0.7,1.8,2470.357,13.28,0.067,90.0